Cosmos 1782 - Orbit

View from above orbital plane
View from above orbital plane
View from above satellite
View from above satellite

Ground track
Ground track

The orbit data is extracted from the following two-line orbital elements,

1 16986U 86074A   13141.48218604  .00003140  00000-0  24502-3 0  4740
2 16986 082.5070 123.3843 0013025 017.8921 342.2759 15.00780654447190
Epoch (UTC): 21 May 2013 11:34:20
Eccentricity: 0.0013025
inclination: 82.5070°
perigee height: 555 km
apogee height: 573 km
right ascension of ascending node: 123.3843°
argument of perigee: 17.8921°
revolutions per day: 15.00780654
mean anomaly at epoch: 342.2759°
orbit number at epoch: 44719

The dashed part of the orbit path shows where the satellite is in the earth's shadow,  

Developed and maintained by Chris Peat, Heavens-Above GmbH. Please read the updated FAQ before sending e-mail. Imprint. DLR